浦田-新島彗星

112P/Urata-Niijima (2006)

English version
Home page
Total 6,336 html files since Dec. 4, 1995
Updated on September 21, 2007

---------------------------------------------------------------------

・ プロフィール

・ 写真集

・ 軌道要素

Epoch 2006 Nov. 1.0 TT = JDT 2454040.5
T 2006 Oct. 29.5759 TT                                  MPCN
q   1.464693             (2000.0)            P               Q
n   0.1478481      Peri.   21.4481      +0.6135077      -0.7594270
a   3.542084       Node    31.9281      +0.6518392      +0.3322346
e   0.586488       Incl.   24.1675      +0.4457735      +0.5593664
P   6.67
From 84 observations 1986-1999, mean residual 1".0.

・ 星図

・ 光度変化

        m1 = 13.7 + 5 logΔ + 20.0 log r(t - 30)

---------------------------------------------------------------------

軌道要素はMPCのEphemerides and Orbital Elementsに掲載されたものです。
星図は StellaNavigator Ver.2.0 for Windows (アストロアーツ 編著 / アスキー出版局刊) で作成したものです。
光度グラフはComet for Windowsで作成したものです。

---------------------------------------------------------------------

Copyright(C) 1995-2008 Seiichi Yoshida (comet@aerith.net). All rights reserved.